START_TIME,STEP,MOV.,H8,t_acc.,H43,t_acc.,M25,t_acc.,H9,t_acc.
1979-07-28 09:00:28.690 ,0,0,0.,12.0,0.,12.0,0.,12.0,0.,12.0
1979-07-28 09:00:40.690 ,0,0,0.,12.0,0.,12.0,0.,12.0,0.,12.0
1979-07-28 09:00:52.690 ,0,0,0.,12.0,0.,12.0,0.,12.0,0.,12.0
1979-07-28 09:01:04.690 ,0,0,0.,12.0,0.,12.0,0.,12.0,0.,12.0
1979-07-28 09:01:16.690 ,0,0,0.,12.0,0.,12.0,0.,12.0,0.,12.0
1979-07-28 09:01:28.690 ,0,0,0.,12.0,0.,12.0,0.,12.0,0.,12.0
1979-07-28 09:01:40.690 ,1,0,0.,12.0,0.,12.0,0.,12.0,0.,12.0
1979-07-28 09:01:52.690 ,1,0,0.,12.0,0.,12.0,0.,12.0,0.,12.0
1979-07-28 09:02:04.690 ,1,0,0.,12.0,0.,12.0,0.,12.0,0.,12.0
1979-07-28 09:02:16.690 ,1,0,0.,12.0,0.,12.0,0.,12.0,0.,12.0
1979-07-28 09:02:28.690 ,2,0,0.,12.0,0.,12.0,0.,12.0,0.,12.0
1979-07-28 09:02:40.690 ,2,0,0.,12.0,0.,12.0,0.,12.0,0.,12.0
1979-07-28 09:02:52.690 ,2,0,0.,12.0,0.,12.0,0.,12.0,0.,12.0
1979-07-28 09:03:04.690 ,2,0,0.,12.0,0.,12.0,0.,12.0,0.,12.0
1979-07-28 09:03:16.690 ,3,0,0.,12.0,0.,12.0,0.,12.0,0.,12.0
1979-07-28 09:03:28.690 ,3,0,0.,12.0,0.,12.0,0.,12.0,0.,12.0
1979-07-28 09:03:40.690 ,3,0,0.,12.0,0.,12.0,0.,12.0,0.,12.0
1979-07-28 09:03:52.690 ,3,0,0.,12.0,0.,12.0,0.,12.0,0.,12.0
1979-07-28 09:04:04.690 ,4,0,0.,12.0,0.,12.0,0.,12.0,0.,12.0
1979-07-28 09:04:16.690 ,4,0,0.,12.0,0.,12.0,0.,12.0,0.,12.0
1979-07-28 09:04:28.690 ,4,0,0.,12.0,0.,12.0,0.,12.0,0.,12.0
1979-07-28 09:04:40.690 ,4,0,0.,12.0,0.,12.0,0.,12.0,0.,12.0
1979-07-28 09:04:52.690 ,5,0,0.,12.0,0.,12.0,0.,12.0,0.,12.0
1979-07-28 09:05:04.690 ,5,0,0.,12.0,0.,12.0,0.,12.0,0.,12.0
1979-07-28 09:05:16.690 ,5,0,0.,12.0,0.,12.0,0.,12.0,0.,12.0
1979-07-28 09:05:28.690 ,5,0,0.,12.0,0.,12.0,0.,12.0,0.,12.0
1979-07-28 09:05:40.690 ,6,0,0.,12.0,0.,12.0,0.,12.0,0.,12.0
1979-07-28 09:05:52.690 ,6,0,0.,12.0,0.,12.0,0.,12.0,0.,12.0
1979-07-28 09:06:04.690 ,6,0,0.,12.0,0.,12.0,0.,12.0,0.,12.0
1979-07-28 09:06:16.690 ,6,0,0.,12.0,0.,12.0,0.,12.0,0.,12.0
1979-07-28 09:06:28.690 ,7,0,0.,12.0,0.,12.0,0.,12.0,0.,12.0
1979-07-28 09:06:40.690 ,7,0,0.,12.0,0.,12.0,0.,12.0,0.,12.0
1979-07-28 09:06:52.690 ,7,0,0.,12.0,0.,12.0,0.,12.0,0.,12.0
1979-07-28 09:07:04.690 ,7,0,0.,12.0,0.,12.0,0.,12.0,0.,12.0
1979-07-28 09:07:16.690 ,3,1,0.,12.0,0.,12.0,0.,12.0,0.,12.0
1979-07-28 09:07:28.690 ,3,1,0.,12.0,0.,12.0,0.,12.0,0.,12.0
1979-07-28 09:07:40.690 ,0,1,0.,12.0,0.,12.0,0.,12.0,0.,12.0
1979-07-28 09:07:52.690 ,0,1,0.,12.0,0.,12.0,0.,12.0,0.,12.0
1979-07-28 09:08:04.690 ,4,1,0.,12.0,0.,12.0,0.,12.0,0.,12.0
1979-07-28 09:08:16.690 ,4,1,0.,12.0,0.,12.0,0.,12.0,0.,12.0
1979-07-28 09:08:28.690 ,7,1,0.,12.0,0.,12.0,0.,12.0,0.,12.0
1979-07-28 09:08:40.690 ,7,1,0.,12.0,0.,12.0,0.,12.0,0.,12.0
1979-07-28 09:08:52.690 ,3,1,0.,12.0,0.,12.0,0.,12.0,0.,12.0
1979-07-28 09:09:04.690 ,3,1,0.,12.0,0.,12.0,0.,12.0,0.,12.0
1979-07-28 09:09:16.690 ,0,1,0.,12.0,0.,12.0,0.,12.0,0.,12.0
1979-07-28 09:09:28.690 ,0,1,0.,12.0,0.,12.0,0.,12.0,0.,12.0
1979-07-28 09:09:40.690 ,4,1,0.,12.0,0.,12.0,0.,12.0,0.,12.0
1979-07-28 09:09:52.690 ,4,1,0.,12.0,0.,12.0,0.,12.0,0.,12.0
1979-07-28 09:10:04.690 ,7,1,0.,12.0,0.,12.0,0.,12.0,0.,12.0
1979-07-28 09:10:16.690 ,7,1,0.,12.0,0.,12.0,0.,12.0,0.,12.0
1979-07-28 09:10:28.690 ,3,1,0.,12.0,0.,12.0,0.,12.0,0.,12.0
1979-07-28 09:10:40.690 ,3,1,0.,12.0,0.,12.0,0.,12.0,0.,12.0
1979-07-28 09:10:52.690 ,0,1,0.,12.0,0.,12.0,0.,12.0,0.,12.0
1979-07-28 09:11:04.690 ,0,1,0.,12.0,0.,12.0,0.,12.0,0.,12.0
1979-07-28 09:11:16.690 ,4,1,0.,12.0,0.,12.0,0.,12.0,0.,12.0
1979-07-28 09:11:28.690 ,4,1,0.,12.0,0.,12.0,0.,12.0,0.,12.0
1979-07-28 09:11:40.690 ,7,1,0.,12.0,0.,12.0,0.,12.0,0.,12.0
1979-07-28 09:11:52.690 ,7,1,0.,12.0,0.,12.0,0.,12.0,0.,12.0
1979-07-28 09:12:04.690 ,3,1,0.,12.0,0.,12.0,0.,12.0,0.,12.0
1979-07-28 09:12:16.690 ,3,1,0.,12.0,0.,12.0,0.,12.0,0.,12.0
1979-07-28 09:12:28.690 ,0,1,0.,12.0,0.,12.0,0.,12.0,0.,12.0
1979-07-28 09:12:40.690 ,0,1,0.,12.0,0.,12.0,0.,12.0,0.,12.0
1979-07-28 09:12:52.690 ,4,1,0.,12.0,0.,12.0,0.,12.0,0.,12.0
1979-07-28 09:13:04.690 ,4,1,0.,12.0,0.,12.0,0.,12.0,0.,12.0
1979-07-28 09:13:16.690 ,7,1,0.,12.0,0.,12.0,0.,12.0,0.,12.0
1979-07-28 09:13:28.690 ,7,1,0.,12.0,0.,12.0,0.,12.0,0.,12.0
1979-07-28 09:13:40.690 ,3,1,0.,12.0,0.,12.0,0.,12.0,0.,12.0
1979-07-28 09:13:52.690 ,3,1,0.,12.0,0.,12.0,0.,12.0,0.,12.0
1979-07-28 09:14:04.690 ,0,1,0.,12.0,0.,12.0,0.,12.0,0.,12.0
1979-07-28 09:14:16.690 ,0,1,0.,12.0,0.,12.0,0.,12.0,0.,12.0
1979-07-28 09:14:28.690 ,4,1,0.,12.0,0.,12.0,0.,12.0,0.,12.0
1979-07-28 09:14:40.690 ,4,1,0.,12.0,0.,12.0,0.,12.0,0.,12.0
1979-07-28 09:14:52.690 ,7,1,0.,12.0,0.,12.0,0.,12.0,0.,12.0
1979-07-28 09:15:04.690 ,7,1,0.,12.0,0.,12.0,0.,12.0,0.,12.0
1979-07-28 09:15:16.690 ,3,1,0.,12.0,0.,12.0,0.,12.0,0.,12.0
1979-07-28 09:15:28.690 ,3,1,0.,12.0,0.,12.0,0.,12.0,0.,12.0
1979-07-28 09:15:40.690 ,0,1,0.,12.0,0.,12.0,0.,12.0,0.,12.0
1979-07-28 09:15:52.690 ,0,1,0.,12.0,0.,12.0,0.,12.0,0.,12.0
1979-07-28 09:16:04.690 ,4,1,0.,12.0,0.,12.0,0.,12.0,0.,12.0
1979-07-28 09:16:16.690 ,4,1,0.,12.0,0.,12.0,0.,12.0,0.,12.0
1979-07-28 09:16:28.690 ,7,1,0.,12.0,0.,12.0,0.,12.0,0.,12.0
1979-07-28 09:16:40.690 ,7,1,0.,12.0,0.,12.0,0.,12.0,0.,12.0
1979-07-28 09:16:52.690 ,3,1,0.,12.0,0.,12.0,0.,12.0,0.,12.0
1979-07-28 09:17:04.690 ,3,1,0.,12.0,0.,12.0,0.,12.0,0.,12.0
1979-07-28 09:17:16.690 ,0,1,0.,12.0,0.,12.0,0.,12.0,0.,12.0
1979-07-28 09:17:28.690 ,0,1,0.,12.0,0.,12.0,0.,12.0,0.,12.0
1979-07-28 09:17:40.690 ,0,0,0.,12.0,0.,12.0,0.,12.0,0.,12.0
1979-07-28 09:17:52.690 ,0,0,0.,12.0,0.,12.0,0.,12.0,0.,12.0
1979-07-28 09:18:04.690 ,0,0,0.,12.0,0.,12.0,0.,12.0,0.,12.0
1979-07-28 09:18:16.690 ,0,0,0.,12.0,0.,12.0,0.,12.0,0.,12.0
1979-07-28 09:18:28.690 ,5,0,0.,12.0,0.,12.0,0.,12.0,0.,12.0
1979-07-28 09:18:40.690 ,5,0,0.,12.0,0.,12.0,0.,12.0,0.,12.0
1979-07-28 09:18:52.690 ,5,0,0.,12.0,0.,12.0,0.,12.0,0.,12.0
1979-07-28 09:19:04.690 ,5,0,0.,12.0,0.,12.0,0.,12.0,0.,12.0
1979-07-28 09:19:16.690 ,4,0,0.,12.0,0.,12.0,0.,12.0,0.,12.0
1979-07-28 09:19:28.690 ,4,0,0.,12.0,0.,12.0,0.,12.0,0.,12.0
1979-07-28 09:19:40.690 ,4,0,0.,12.0,0.,12.0,0.,12.0,0.,12.0
1979-07-28 09:19:52.690 ,4,0,0.,12.0,0.,12.0,0.,12.0,0.,12.0
1979-07-28 09:20:04.690 ,3,0,0.,12.0,0.,12.0,0.,12.0,0.,12.0
1979-07-28 09:20:16.690 ,3,0,0.,12.0,0.,12.0,0.,12.0,0.,12.0
1979-07-28 09:20:28.690 ,3,0,0.,12.0,0.,12.0,0.,12.0,0.,12.0
1979-07-28 09:20:40.690 ,3,0,0.,12.0,0.,12.0,0.,12.0,0.,12.0
1979-07-28 09:20:52.690 ,2,0,0.,12.0,0.,12.0,0.,12.0,0.,12.0
1979-07-28 09:21:04.690 ,2,0,0.,12.0,0.,12.0,0.,12.0,0.,12.0
1979-07-28 09:21:16.690 ,2,0,0.,12.0,0.,12.0,0.,12.0,0.,12.0
1979-07-28 09:21:28.690 ,2,0,0.,12.0,0.,12.0,0.,12.0,0.,12.0
1979-07-28 09:21:40.690 ,1,0,0.,12.0,0.,12.0,0.,12.0,0.,12.0
1979-07-28 09:21:52.690 ,1,0,0.,12.0,0.,12.0,0.,12.0,0.,12.0
1979-07-28 09:22:04.690 ,1,0,0.,12.0,0.,12.0,0.,12.0,0.,12.0
1979-07-28 09:22:16.690 ,1,0,0.,12.0,0.,12.0,0.,12.0,0.,12.0
1979-07-28 09:22:28.690 ,0,0,0.,12.0,0.,12.0,0.,12.0,0.,12.0
1979-07-28 09:22:40.690 ,0,0,0.,12.0,0.,12.0,0.,12.0,0.,12.0
1979-07-28 09:22:52.690 ,0,0,0.,12.0,0.,12.0,0.,12.0,0.,12.0
1979-07-28 09:23:04.690 ,0,0,0.,12.0,0.,12.0,0.,12.0,0.,12.0
1979-07-28 09:23:16.690 ,0,0,0.,12.0,0.,12.0,0.,12.0,0.,12.0
1979-07-28 09:23:28.690 ,0,0,0.,12.0,0.,12.0,0.,12.0,0.,12.0
1979-07-28 09:23:40.690 ,0,0,0.,12.0,0.,12.0,0.,12.0,0.,12.0
1979-07-28 09:23:52.690 ,0,0,0.,12.0,0.,12.0,0.,12.0,0.,12.0
1979-07-28 09:24:04.690 ,1,0,0.,12.0,0.,12.0,0.,12.0,0.,12.0
1979-07-28 09:24:16.690 ,1,0,0.,12.0,0.,12.0,0.,12.0,0.,12.0
1979-07-28 09:24:28.690 ,1,0,0.,12.0,0.,12.0,0.,12.0,0.,12.0
1979-07-28 09:24:40.690 ,1,0,0.,12.0,0.,12.0,0.,12.0,0.,12.0
1979-07-28 09:24:52.690 ,2,0,0.,12.0,0.,12.0,0.,12.0,0.,12.0
1979-07-28 09:25:04.690 ,2,0,0.,12.0,0.,12.0,0.,12.0,0.,12.0
1979-07-28 09:25:16.690 ,2,0,0.,12.0,0.,12.0,0.,12.0,0.,12.0
1979-07-28 09:25:28.690 ,2,0,0.,12.0,0.,12.0,0.,12.0,0.,12.0
1979-07-28 09:25:40.690 ,3,0,0.,12.0,0.,12.0,0.,12.0,0.,12.0
1979-07-28 09:25:52.690 ,3,0,0.,12.0,0.,12.0,0.,12.0,0.,12.0
1979-07-28 09:26:04.690 ,3,0,0.,12.0,0.,12.0,0.,12.0,0.,12.0
1979-07-28 09:26:16.690 ,3,0,0.,12.0,0.,12.0,0.,12.0,0.,12.0
1979-07-28 09:26:28.690 ,4,0,0.,12.0,0.,12.0,0.,12.0,0.,12.0
1979-07-28 09:26:40.690 ,4,0,0.,12.0,0.,12.0,0.,12.0,0.,12.0
1979-07-28 09:26:52.690 ,4,0,0.,12.0,0.,12.0,0.,12.0,0.,12.0
1979-07-28 09:27:04.690 ,4,0,0.,12.0,0.,12.0,0.,12.0,0.,12.0
1979-07-28 09:27:16.690 ,5,0,0.,12.0,0.,12.0,0.,12.0,0.,12.0
1979-07-28 09:27:28.690 ,5,0,0.,12.0,0.,12.0,0.,12.0,0.,12.0
1979-07-28 09:27:40.690 ,5,0,0.,12.0,0.,12.0,0.,12.0,0.,12.0
1979-07-28 09:27:52.690 ,5,0,0.,12.0,0.,12.0,0.,12.0,0.,12.0
1979-07-28 09:28:04.690 ,6,0,0.,12.0,0.,12.0,0.,12.0,0.,12.0
1979-07-28 09:28:16.690 ,6,0,0.,12.0,0.,12.0,0.,12.0,0.,12.0
1979-07-28 09:28:28.690 ,6,0,0.,12.0,0.,12.0,0.,12.0,0.,12.0
1979-07-28 09:28:40.690 ,6,0,0.,12.0,0.,12.0,0.,12.0,0.,12.0
1979-07-28 09:28:52.690 ,7,0,0.,12.0,0.,12.0,0.,12.0,0.,12.0
1979-07-28 09:29:04.690 ,7,0,0.,12.0,0.,12.0,0.,12.0,0.,12.0
1979-07-28 09:29:16.690 ,7,0,0.,12.0,0.,12.0,0.,12.0,0.,12.0
1979-07-28 09:29:28.690 ,7,0,0.,12.0,0.,12.0,0.,12.0,0.,12.0
1979-07-28 09:29:40.690 ,7,0,0.,12.0,0.,12.0,0.,12.0,0.,12.0
1979-07-28 09:29:52.690 ,7,0,0.,12.0,0.,12.0,0.,12.0,0.,12.0
1979-07-28 09:30:04.690 ,7,0,0.,12.0,0.,12.0,0.,12.0,0.,12.0
1979-07-28 09:30:16.690 ,7,0,0.,12.0,0.,12.0,0.,12.0,0.,12.0
1979-07-28 09:30:28.690 ,6,0,0.,12.0,0.,12.0,0.,12.0,0.,12.0
1979-07-28 09:30:40.690 ,6,0,0.,12.0,0.,12.0,0.,12.0,0.,12.0
1979-07-28 09:30:52.690 ,6,0,0.,12.0,0.,12.0,0.,12.0,0.,12.0
1979-07-28 09:31:04.690 ,6,0,0.,12.0,0.,12.0,0.,12.0,0.,12.0
1979-07-28 09:31:16.690 ,5,0,0.,12.0,0.,12.0,0.,12.0,0.,12.0
1979-07-28 09:31:28.690 ,5,0,0.,12.0,0.,12.0,0.,12.0,0.,12.0
1979-07-28 09:31:40.690 ,5,0,0.,12.0,0.,12.0,0.,12.0,0.,12.0
1979-07-28 09:31:52.690 ,5,0,0.,12.0,0.,12.0,0.,12.0,0.,12.0
1979-07-28 09:32:04.690 ,4,0,0.,12.0,0.,12.0,0.,12.0,0.,12.0
1979-07-28 09:32:16.690 ,4,0,0.,12.0,0.,12.0,0.,12.0,0.,12.0
1979-07-28 09:32:28.690 ,4,0,0.,12.0,0.,12.0,0.,12.0,0.,12.0
1979-07-28 09:32:40.690 ,4,0,0.,12.0,0.,12.0,0.,12.0,0.,12.0
1979-07-28 09:32:52.690 ,3,0,0.,12.0,0.,12.0,0.,12.0,0.,12.0
1979-07-28 09:33:04.690 ,3,0,0.,12.0,0.,12.0,0.,12.0,0.,12.0
1979-07-28 09:33:16.690 ,3,0,0.,12.0,0.,12.0,0.,12.0,0.,12.0
1979-07-28 09:33:28.690 ,3,0,0.,12.0,0.,12.0,0.,12.0,0.,12.0
1979-07-28 09:33:40.690 ,2,0,0.,12.0,0.,12.0,0.,12.0,0.,12.0
1979-07-28 09:33:52.690 ,2,0,0.,12.0,0.,12.0,0.,12.0,0.,12.0
1979-07-28 09:34:04.690 ,2,0,0.,12.0,0.,12.0,0.,12.0,0.,12.0
1979-07-28 09:34:16.690 ,2,0,0.,12.0,0.,12.0,0.,12.0,0.,12.0
1979-07-28 09:34:28.690 ,1,0,0.,12.0,0.,12.0,0.,12.0,0.,12.0
1979-07-28 09:34:40.690 ,1,0,0.,12.0,0.,12.0,0.,12.0,0.,12.0
1979-07-28 09:34:52.690 ,1,0,0.,12.0,0.,12.0,0.,12.0,0.,12.0
1979-07-28 09:35:04.690 ,1,0,0.,12.0,0.,12.0,0.,12.0,0.,12.0
1979-07-28 09:35:16.690 ,0,0,0.,12.0,0.,12.0,0.,12.0,0.,12.0
1979-07-28 09:35:28.690 ,0,0,0.,12.0,0.,12.0,1.,12.0,0.,12.0
1979-07-28 09:35:40.690 ,0,0,0.,12.0,0.,12.0,0.,12.0,0.,12.0
1979-07-28 09:35:52.690 ,0,0,0.,12.0,0.,12.0,0.,12.0,0.,12.0
1979-07-28 09:36:04.690 ,0,0,0.,12.0,0.,12.0,0.,12.0,0.,12.0
1979-07-28 09:36:16.690 ,0,0,0.,12.0,0.,12.0,0.,12.0,0.,12.0
1979-07-28 09:36:28.690 ,0,0,0.,12.0,0.,12.0,0.,12.0,0.,12.0
1979-07-28 09:36:40.690 ,0,0,0.,12.0,0.,12.0,0.,12.0,0.,12.0
1979-07-28 09:36:52.690 ,1,0,0.,12.0,0.,12.0,0.,12.0,0.,12.0
1979-07-28 09:37:04.690 ,1,0,0.,12.0,0.,12.0,0.,12.0,0.,12.0
1979-07-28 09:37:16.690 ,1,0,0.,12.0,0.,12.0,0.,12.0,0.,12.0
1979-07-28 09:37:28.690 ,1,0,0.,12.0,0.,12.0,0.,12.0,0.,12.0
1979-07-28 09:37:40.690 ,2,0,0.,12.0,0.,12.0,0.,12.0,0.,12.0
1979-07-28 09:37:52.690 ,2,0,0.,12.0,0.,12.0,0.,12.0,0.,12.0
1979-07-28 09:38:04.690 ,2,0,0.,12.0,0.,12.0,0.,12.0,0.,12.0
1979-07-28 09:38:16.690 ,2,0,0.,12.0,0.,12.0,0.,12.0,0.,12.0
1979-07-28 09:38:28.690 ,3,0,0.,12.0,0.,12.0,0.,12.0,0.,12.0
1979-07-28 09:38:40.690 ,3,0,0.,12.0,0.,12.0,0.,12.0,0.,12.0
1979-07-28 09:38:52.690 ,3,0,0.,12.0,0.,12.0,0.,12.0,0.,12.0
1979-07-28 09:39:04.690 ,3,0,0.,12.0,0.,12.0,0.,12.0,0.,12.0
1979-07-28 09:39:16.690 ,0,0,0.,12.0,0.,12.0,0.,12.0,0.,12.0
1979-07-28 09:39:28.690 ,0,0,0.,12.0,0.,12.0,0.,12.0,0.,12.0
1979-07-28 09:39:40.690 ,0,0,0.,12.0,0.,12.0,0.,12.0,0.,12.0
1979-07-28 09:39:52.690 ,0,0,0.,12.0,0.,12.0,0.,12.0,0.,12.0
1979-07-28 09:40:04.690 ,5,0,0.,12.0,0.,12.0,0.,12.0,0.,12.0
1979-07-28 09:40:16.690 ,5,0,0.,12.0,0.,12.0,0.,12.0,0.,12.0
1979-07-28 09:40:28.690 ,5,0,0.,12.0,0.,12.0,0.,12.0,0.,12.0
1979-07-28 09:40:40.690 ,5,0,0.,12.0,0.,12.0,0.,12.0,0.,12.0
1979-07-28 09:40:52.690 ,6,0,0.,12.0,0.,12.0,0.,12.0,0.,12.0
1979-07-28 09:41:04.690 ,6,0,0.,12.0,0.,12.0,0.,12.0,0.,12.0
1979-07-28 09:41:16.690 ,6,0,0.,12.0,0.,12.0,0.,12.0,0.,12.0
1979-07-28 09:41:28.690 ,6,0,0.,12.0,0.,12.0,0.,12.0,0.,12.0
1979-07-28 09:41:40.690 ,7,0,0.,12.0,0.,12.0,0.,12.0,0.,12.0
1979-07-28 09:41:52.690 ,7,0,0.,12.0,0.,12.0,0.,12.0,0.,12.0
1979-07-28 09:42:04.690 ,7,0,0.,12.0,0.,12.0,0.,12.0,0.,12.0
1979-07-28 09:42:16.690 ,7,0,0.,12.0,0.,12.0,0.,12.0,0.,12.0
1979-07-28 09:42:28.690 ,7,0,0.,12.0,0.,12.0,0.,12.0,0.,12.0
1979-07-28 09:42:40.690 ,7,0,0.,12.0,0.,12.0,0.,12.0,0.,12.0
1979-07-28 09:42:52.690 ,7,0,0.,12.0,0.,12.0,0.,12.0,0.,12.0
1979-07-28 09:43:04.690 ,7,0,0.,12.0,0.,12.0,0.,12.0,0.,12.0
1979-07-28 09:43:16.690 ,6,0,0.,12.0,0.,12.0,0.,12.0,0.,12.0
1979-07-28 09:43:28.690 ,6,0,0.,12.0,0.,12.0,0.,12.0,0.,12.0
1979-07-28 09:43:40.690 ,6,0,0.,12.0,0.,12.0,0.,12.0,0.,12.0
1979-07-28 09:43:52.690 ,6,0,0.,12.0,0.,12.0,0.,12.0,0.,12.0
1979-07-28 09:44:04.690 ,5,0,0.,12.0,0.,12.0,0.,12.0,0.,12.0
1979-07-28 09:44:16.690 ,5,0,0.,12.0,0.,12.0,0.,12.0,0.,12.0
1979-07-28 09:44:28.690 ,5,0,0.,12.0,0.,12.0,0.,12.0,0.,12.0
1979-07-28 09:44:40.690 ,5,0,0.,12.0,0.,12.0,0.,12.0,0.,12.0
1979-07-28 09:44:52.690 ,4,0,0.,12.0,0.,12.0,0.,12.0,0.,12.0
1979-07-28 09:45:04.690 ,4,0,0.,12.0,0.,12.0,0.,12.0,0.,12.0
1979-07-28 09:45:16.690 ,4,0,0.,12.0,0.,12.0,0.,12.0,0.,12.0
1979-07-28 09:45:28.690 ,4,0,0.,12.0,0.,12.0,0.,12.0,0.,12.0
1979-07-28 09:45:40.690 ,3,0,0.,12.0,0.,12.0,0.,12.0,0.,12.0
1979-07-28 09:45:52.690 ,3,0,0.,12.0,0.,12.0,0.,12.0,0.,12.0
1979-07-28 09:46:04.690 ,3,0,0.,12.0,0.,12.0,0.,12.0,0.,12.0
1979-07-28 09:46:16.690 ,3,0,0.,12.0,0.,12.0,0.,12.0,0.,12.0
1979-07-28 09:46:28.690 ,2,0,0.,12.0,0.,12.0,0.,12.0,0.,12.0
1979-07-28 09:46:40.690 ,2,0,0.,12.0,0.,12.0,0.,12.0,0.,12.0
1979-07-28 09:46:52.690 ,2,0,0.,12.0,0.,12.0,0.,12.0,0.,12.0
1979-07-28 09:47:04.690 ,2,0,0.,12.0,0.,12.0,0.,12.0,0.,12.0
1979-07-28 09:47:16.690 ,1,0,0.,12.0,0.,12.0,0.,12.0,0.,12.0
1979-07-28 09:47:28.690 ,1,0,0.,12.0,0.,12.0,0.,12.0,0.,12.0
1979-07-28 09:47:40.690 ,1,0,0.,12.0,0.,12.0,0.,12.0,0.,12.0
1979-07-28 09:47:52.690 ,1,0,0.,12.0,0.,12.0,0.,12.0,0.,12.0
1979-07-28 09:48:04.690 ,0,0,0.,12.0,0.,12.0,0.,12.0,0.,12.0
1979-07-28 09:48:16.690 ,0,0,0.,12.0,0.,12.0,0.,12.0,0.,12.0
1979-07-28 09:48:28.690 ,0,0,0.,12.0,0.,12.0,0.,12.0,0.,12.0
1979-07-28 09:48:40.690 ,0,0,0.,12.0,0.,12.0,0.,12.0,0.,12.0
1979-07-28 09:48:52.690 ,0,0,0.,12.0,0.,12.0,0.,12.0,0.,12.0
1979-07-28 09:49:04.690 ,0,0,0.,12.0,0.,12.0,0.,12.0,0.,12.0
1979-07-28 09:49:16.690 ,0,0,0.,12.0,0.,12.0,0.,12.0,0.,12.0
1979-07-28 09:49:28.690 ,0,0,0.,12.0,0.,12.0,0.,12.0,0.,12.0
1979-07-28 09:49:40.690 ,1,0,0.,12.0,0.,12.0,0.,12.0,0.,12.0
1979-07-28 09:49:52.690 ,1,0,0.,12.0,0.,12.0,0.,12.0,0.,12.0
1979-07-28 09:50:04.690 ,1,0,0.,12.0,0.,12.0,0.,12.0,0.,12.0
1979-07-28 09:50:16.690 ,1,0,0.,12.0,0.,12.0,0.,12.0,0.,12.0
1979-07-28 09:50:28.690 ,2,0,0.,12.0,0.,12.0,0.,12.0,0.,12.0
1979-07-28 09:50:40.690 ,2,0,0.,12.0,0.,12.0,0.,12.0,0.,12.0
1979-07-28 09:50:52.690 ,2,0,0.,12.0,0.,12.0,0.,12.0,0.,12.0
1979-07-28 09:51:04.690 ,2,0,0.,12.0,0.,12.0,0.,12.0,0.,12.0
1979-07-28 09:51:16.690 ,3,0,0.,12.0,0.,12.0,0.,12.0,0.,12.0
1979-07-28 09:51:28.690 ,3,0,0.,12.0,0.,12.0,0.,12.0,0.,12.0
1979-07-28 09:51:40.690 ,3,0,0.,12.0,0.,12.0,0.,12.0,0.,12.0
1979-07-28 09:51:52.690 ,3,0,0.,12.0,0.,12.0,0.,12.0,0.,12.0
1979-07-28 09:52:04.690 ,4,0,0.,12.0,0.,12.0,0.,12.0,0.,12.0
1979-07-28 09:52:16.690 ,4,0,0.,12.0,0.,12.0,0.,12.0,0.,12.0
1979-07-28 09:52:28.690 ,4,0,0.,12.0,0.,12.0,0.,12.0,0.,12.0
1979-07-28 09:52:40.690 ,4,0,0.,12.0,0.,12.0,0.,12.0,0.,12.0
1979-07-28 09:52:52.690 ,5,0,0.,12.0,0.,12.0,0.,12.0,0.,12.0
1979-07-28 09:53:04.690 ,5,0,0.,12.0,0.,12.0,0.,12.0,0.,12.0
1979-07-28 09:53:16.690 ,5,0,0.,12.0,0.,12.0,0.,12.0,0.,12.0
1979-07-28 09:53:28.690 ,5,0,1.,12.0,0.,12.0,0.,12.0,0.,12.0
1979-07-28 09:53:40.690 ,6,0,0.,12.0,0.,12.0,0.,12.0,0.,12.0
1979-07-28 09:53:52.690 ,6,0,0.,12.0,0.,12.0,0.,12.0,0.,12.0
1979-07-28 09:54:04.690 ,6,0,0.,12.0,0.,12.0,0.,12.0,0.,12.0
1979-07-28 09:54:16.690 ,6,0,0.,12.0,0.,12.0,0.,12.0,0.,12.0
1979-07-28 09:54:28.690 ,7,0,0.,12.0,0.,12.0,0.,12.0,0.,12.0
1979-07-28 09:54:40.690 ,7,0,0.,12.0,0.,12.0,0.,12.0,0.,12.0
1979-07-28 09:54:52.690 ,7,0,0.,12.0,0.,12.0,0.,12.0,0.,12.0
1979-07-28 09:55:04.690 ,7,0,0.,12.0,0.,12.0,0.,12.0,0.,12.0
1979-07-28 09:55:16.690 ,3,1,0.,12.0,0.,12.0,0.,12.0,0.,12.0
1979-07-28 09:55:28.690 ,3,1,0.,12.0,0.,12.0,0.,12.0,0.,12.0
1979-07-28 09:55:40.690 ,0,1,0.,12.0,0.,12.0,0.,12.0,0.,12.0
1979-07-28 09:55:52.690 ,0,1,0.,12.0,0.,12.0,0.,12.0,0.,12.0
1979-07-28 09:56:04.690 ,4,1,0.,12.0,0.,12.0,0.,12.0,0.,12.0
1979-07-28 09:56:16.690 ,4,1,0.,12.0,0.,12.0,0.,12.0,0.,12.0
1979-07-28 09:56:28.690 ,7,1,0.,12.0,0.,12.0,0.,12.0,0.,12.0
1979-07-28 09:56:40.690 ,7,1,0.,12.0,0.,12.0,0.,12.0,0.,12.0
1979-07-28 09:56:52.690 ,3,1,0.,12.0,0.,12.0,0.,12.0,0.,12.0
1979-07-28 09:57:04.690 ,3,1,0.,12.0,0.,12.0,0.,12.0,0.,12.0
1979-07-28 09:57:16.690 ,0,1,0.,12.0,0.,12.0,0.,12.0,0.,12.0
1979-07-28 09:57:28.690 ,0,1,0.,12.0,0.,12.0,0.,12.0,0.,12.0
1979-07-28 09:57:40.690 ,4,1,0.,12.0,0.,12.0,0.,12.0,0.,12.0
1979-07-28 09:57:52.690 ,4,1,0.,12.0,0.,12.0,0.,12.0,0.,12.0
1979-07-28 09:58:04.690 ,7,1,0.,12.0,0.,12.0,0.,12.0,0.,12.0
1979-07-28 09:58:16.690 ,7,1,0.,12.0,0.,12.0,0.,12.0,0.,12.0
1979-07-28 09:58:28.690 ,3,1,0.,12.0,0.,12.0,0.,12.0,0.,12.0
1979-07-28 09:58:40.690 ,3,1,0.,12.0,0.,12.0,0.,12.0,0.,12.0
1979-07-28 09:58:52.690 ,0,1,0.,12.0,0.,12.0,0.,12.0,0.,12.0
1979-07-28 09:59:04.690 ,0,1,0.,12.0,0.,12.0,0.,12.0,0.,12.0
1979-07-28 09:59:16.690 ,4,1,0.,12.0,0.,12.0,0.,12.0,0.,12.0
1979-07-28 09:59:28.690 ,4,1,0.,12.0,0.,12.0,0.,12.0,0.,12.0
1979-07-28 09:59:40.690 ,7,1,0.,12.0,0.,12.0,0.,12.0,0.,12.0
1979-07-28 09:59:52.690 ,7,1,0.,12.0,0.,12.0,0.,12.0,0.,12.0
1979-07-28 10:00:04.690 ,3,1,0.,12.0,0.,12.0,0.,12.0,0.,12.0
1979-07-28 10:00:16.690 ,3,1,0.,12.0,0.,12.0,0.,12.0,0.,12.0
1979-07-28 10:00:28.690 ,0,1,0.,12.0,0.,12.0,0.,12.0,0.,12.0
1979-07-28 10:00:40.690 ,0,1,0.,12.0,0.,12.0,0.,12.0,0.,12.0
1979-07-28 10:00:52.690 ,4,1,0.,12.0,0.,12.0,0.,12.0,0.,12.0
1979-07-28 10:01:04.690 ,4,1,0.,12.0,0.,12.0,0.,12.0,0.,12.0
1979-07-28 10:01:16.690 ,7,1,0.,12.0,0.,12.0,0.,12.0,0.,12.0
1979-07-28 10:01:28.690 ,7,1,0.,12.0,0.,12.0,0.,12.0,0.,12.0
1979-07-28 10:01:40.690 ,3,1,0.,12.0,0.,12.0,0.,12.0,0.,12.0
1979-07-28 10:01:52.690 ,3,1,0.,12.0,0.,12.0,0.,12.0,0.,12.0
1979-07-28 10:02:04.690 ,0,0,0.,12.0,0.,12.0,0.,12.0,0.,12.0
1979-07-28 10:02:16.690 ,0,0,0.,12.0,0.,12.0,0.,12.0,0.,12.0
1979-07-28 10:02:28.690 ,0,0,0.,12.0,0.,12.0,0.,12.0,0.,12.0
1979-07-28 10:02:40.690 ,0,0,0.,12.0,0.,12.0,0.,12.0,0.,12.0
1979-07-28 10:02:52.690 ,7,1,0.,12.0,0.,12.0,0.,12.0,0.,12.0
1979-07-28 10:03:04.690 ,7,1,0.,12.0,0.,12.0,0.,12.0,0.,12.0
1979-07-28 10:03:16.690 ,3,1,0.,12.0,0.,12.0,0.,12.0,0.,12.0
1979-07-28 10:03:28.690 ,3,1,0.,12.0,0.,12.0,0.,12.0,0.,12.0
1979-07-28 10:03:40.690 ,0,1,0.,12.0,0.,12.0,0.,12.0,0.,12.0
1979-07-28 10:03:52.690 ,0,1,0.,12.0,0.,12.0,0.,12.0,0.,12.0
1979-07-28 10:04:04.690 ,4,1,0.,12.0,0.,12.0,0.,12.0,0.,12.0
1979-07-28 10:04:16.690 ,4,1,0.,12.0,0.,12.0,0.,12.0,0.,12.0
1979-07-28 10:04:28.690 ,7,1,0.,12.0,0.,12.0,0.,12.0,0.,12.0
1979-07-28 10:04:40.690 ,7,1,0.,12.0,0.,12.0,0.,12.0,0.,12.0
1979-07-28 10:04:52.690 ,3,1,0.,12.0,0.,12.0,0.,12.0,0.,12.0
1979-07-28 10:05:04.690 ,3,1,0.,12.0,0.,12.0,0.,12.0,0.,12.0
1979-07-28 10:05:16.690 ,0,1,0.,12.0,0.,12.0,0.,12.0,0.,12.0
1979-07-28 10:05:28.690 ,0,1,0.,12.0,0.,12.0,0.,12.0,0.,12.0
1979-07-28 10:05:40.690 ,0,0,0.,12.0,0.,12.0,0.,12.0,0.,12.0
1979-07-28 10:05:52.690 ,0,0,0.,12.0,0.,12.0,0.,12.0,0.,12.0
1979-07-28 10:06:04.690 ,0,0,0.,12.0,0.,12.0,0.,12.0,0.,12.0
1979-07-28 10:06:16.690 ,0,0,0.,12.0,0.,12.0,0.,12.0,0.,12.0
1979-07-28 10:06:28.690 ,5,0,0.,12.0,0.,12.0,0.,12.0,0.,12.0
1979-07-28 10:06:40.690 ,5,0,0.,12.0,0.,12.0,0.,12.0,0.,12.0
1979-07-28 10:06:52.690 ,5,0,0.,12.0,0.,12.0,0.,12.0,0.,12.0
1979-07-28 10:07:04.690 ,5,0,0.,12.0,0.,12.0,0.,12.0,0.,12.0
1979-07-28 10:07:16.690 ,4,0,0.,12.0,0.,12.0,0.,12.0,0.,12.0
1979-07-28 10:07:28.690 ,4,0,0.,12.0,0.,12.0,0.,12.0,0.,12.0
1979-07-28 10:07:40.690 ,4,0,0.,12.0,0.,12.0,0.,12.0,0.,12.0
1979-07-28 10:07:52.690 ,4,0,0.,12.0,0.,12.0,0.,12.0,0.,12.0
1979-07-28 10:08:04.690 ,3,0,0.,12.0,0.,12.0,0.,12.0,0.,12.0
1979-07-28 10:08:16.690 ,3,0,0.,12.0,0.,12.0,0.,12.0,0.,12.0
1979-07-28 10:08:28.690 ,3,0,0.,12.0,0.,12.0,0.,12.0,0.,12.0
1979-07-28 10:08:40.690 ,3,0,0.,12.0,0.,12.0,0.,12.0,0.,12.0
1979-07-28 10:08:52.690 ,2,0,0.,12.0,0.,12.0,0.,12.0,0.,12.0
1979-07-28 10:09:04.690 ,2,0,0.,12.0,0.,12.0,0.,12.0,0.,12.0
1979-07-28 10:09:16.690 ,2,0,0.,12.0,0.,12.0,0.,12.0,0.,12.0
1979-07-28 10:09:28.690 ,2,0,0.,12.0,0.,12.0,0.,12.0,0.,12.0
1979-07-28 10:09:40.690 ,1,0,0.,12.0,0.,12.0,0.,12.0,0.,12.0
1979-07-28 10:09:52.690 ,1,0,0.,12.0,0.,12.0,0.,12.0,0.,12.0
1979-07-28 10:10:04.690 ,1,0,0.,12.0,0.,12.0,0.,12.0,0.,12.0
1979-07-28 10:10:16.690 ,1,0,0.,12.0,0.,12.0,0.,12.0,0.,12.0
1979-07-28 10:10:28.690 ,0,0,0.,12.0,0.,12.0,0.,12.0,0.,12.0
1979-07-28 10:10:40.690 ,0,0,0.,12.0,0.,12.0,0.,12.0,0.,12.0
1979-07-28 10:10:52.690 ,0,0,0.,12.0,0.,12.0,0.,12.0,0.,12.0
1979-07-28 10:11:04.690 ,0,0,0.,12.0,0.,12.0,0.,12.0,0.,12.0
1979-07-28 10:11:16.690 ,0,0,0.,12.0,0.,12.0,0.,12.0,0.,12.0
1979-07-28 10:11:28.690 ,0,0,0.,12.0,0.,12.0,0.,12.0,0.,12.0
1979-07-28 10:11:40.690 ,0,0,0.,12.0,0.,12.0,0.,12.0,0.,12.0
1979-07-28 10:11:52.690 ,0,0,0.,12.0,0.,12.0,0.,12.0,0.,12.0
1979-07-28 10:12:04.690 ,1,0,0.,12.0,0.,12.0,0.,12.0,0.,12.0
1979-07-28 10:12:16.690 ,1,0,0.,12.0,0.,12.0,0.,12.0,0.,12.0
1979-07-28 10:12:28.690 ,1,0,0.,12.0,0.,12.0,0.,12.0,0.,12.0
1979-07-28 10:12:40.690 ,1,0,0.,12.0,0.,12.0,0.,12.0,0.,12.0
1979-07-28 10:12:52.690 ,2,0,0.,12.0,0.,12.0,0.,12.0,0.,12.0
1979-07-28 10:13:04.690 ,2,0,0.,12.0,0.,12.0,0.,12.0,0.,12.0
1979-07-28 10:13:16.690 ,2,0,0.,12.0,0.,12.0,0.,12.0,0.,12.0
1979-07-28 10:13:28.690 ,2,0,0.,12.0,0.,12.0,0.,12.0,0.,12.0
1979-07-28 10:13:40.690 ,3,0,0.,12.0,0.,12.0,0.,12.0,0.,12.0
1979-07-28 10:13:52.690 ,3,0,0.,12.0,0.,12.0,0.,12.0,0.,12.0
1979-07-28 10:14:04.690 ,3,0,0.,12.0,0.,12.0,0.,12.0,0.,12.0
1979-07-28 10:14:16.690 ,3,0,0.,12.0,0.,12.0,0.,12.0,0.,12.0
1979-07-28 10:14:28.690 ,4,0,0.,12.0,0.,12.0,0.,12.0,0.,12.0
1979-07-28 10:14:40.690 ,4,0,0.,12.0,0.,12.0,0.,12.0,0.,12.0
1979-07-28 10:14:52.690 ,4,0,0.,12.0,0.,12.0,0.,12.0,0.,12.0
1979-07-28 10:15:04.690 ,4,0,0.,12.0,0.,12.0,0.,12.0,0.,12.0
1979-07-28 10:15:16.690 ,5,0,0.,12.0,0.,12.0,0.,12.0,0.,12.0
1979-07-28 10:15:28.690 ,5,0,0.,12.0,0.,12.0,0.,12.0,0.,12.0
1979-07-28 10:15:40.690 ,5,0,0.,12.0,0.,12.0,0.,12.0,0.,12.0
1979-07-28 10:15:52.690 ,5,0,0.,12.0,0.,12.0,0.,12.0,0.,12.0
1979-07-28 10:16:04.690 ,6,0,0.,12.0,0.,12.0,0.,12.0,0.,12.0
1979-07-28 10:16:16.690 ,6,0,0.,12.0,0.,12.0,0.,12.0,0.,12.0
1979-07-28 10:16:28.690 ,6,0,0.,12.0,0.,12.0,0.,12.0,0.,12.0
1979-07-28 10:16:40.690 ,6,0,0.,12.0,0.,12.0,0.,12.0,0.,12.0
1979-07-28 10:16:52.690 ,7,0,0.,12.0,0.,12.0,0.,12.0,0.,12.0
1979-07-28 10:17:04.690 ,7,0,0.,12.0,0.,12.0,0.,12.0,0.,12.0
1979-07-28 10:17:16.690 ,7,0,0.,12.0,0.,12.0,0.,12.0,0.,12.0
1979-07-28 10:17:28.690 ,7,0,0.,12.0,0.,12.0,0.,12.0,0.,12.0